Weather History for Frenchville, ME

Change the Weather History Date:

Saturday, March 16, 2013

  Actual Average Record
Temperature  
Mean Temperature 16 °F 23 °F  
Max Temperature 22 °F 32 °F 37 °F (2005)
Min Temperature 9 °F 15 °F 0 °F (2014)
Degree Days  
Heating Degree Days 49    
Month to date heating degree days 563  
Since 1 July heating degree days 7053  
Cooling Degree Days 0    
Month to date cooling degree days 0  
Year to date cooling degree days 0  
Moisture  
Dew Point 2 °F    
Average Humidity 56    
Maximum Humidity 73    
Minimum Humidity 33    
Precipitation  
Precipitation 0.00 in 0.04 in 0.10 in (2001)
Month to date precipitation 0.40 0.57  
Year to date precipitation 2.62 3.14  
Sea Level Pressure  
Sea Level Pressure 29.70 in    
Wind  
Wind Speed 10 mph (NW)    
Max Wind Speed 22 mph    
Max Gust Speed 28 mph    
Visibility 10 miles    
Events      
T = Trace of Precipitation, MM = Missing Value Source: NWS Daily Summary

Daily Weather History Graph

Daily Weather History Graph

Search for Another Location

Airport:

Trip Planner

Search our weather history database for the weather conditions in past years. The results will help you decide how hot, cold, wet, or windy it might be!

Date:

Astronomy

Mar. 16, 2013 Rise Set
Actual Time 6:43 AM EDT 6:40 PM EDT
Civil Twilight 6:13 AM EDT 7:11 PM EDT
Nautical Twilight 5:37 AM EDT 7:46 PM EDT
Astronomical Twilight 5:01 AM EDT 8:23 PM EDT
Moon 8:50 AM EDT (3/16) No Moon Set
Length of Visible Light 12h 57m
Length of Day
11h 56m
Waxing Crescent, 23% of the Moon is Illuminated
Mar 16
Waxing Crescent
Mar 19
First Quarter
Mar 27
Full
Apr 3
Last Quarter
Apr 10
New

Hourly Weather History & Observations

Time (EDT) Temp. Windchill Dew Point Humidity Pressure Visibility Wind Dir Wind Speed Gust Speed Precip Events Conditions
12:53 AM 15.1 °F 4.2 °F 6.1 °F 68% 29.61 in 10.0 mi WNW 8.1 mph - N/A   Clear
1:53 AM 14.0 °F 5.1 °F 5.0 °F 67% 29.61 in 10.0 mi WNW 5.8 mph - N/A   Clear
2:53 AM 14.0 °F 3.9 °F 3.9 °F 64% 29.62 in 10.0 mi NW 6.9 mph - N/A   Clear
3:53 AM 12.0 °F 2.7 °F 3.9 °F 70% 29.62 in 10.0 mi NW 5.8 mph - N/A   Clear
4:53 AM 12.0 °F 0.5 °F 5.0 °F 73% 29.64 in 10.0 mi NW 8.1 mph - N/A   Clear
5:53 AM 12.0 °F 1.5 °F 5.0 °F 73% 29.66 in 10.0 mi NW 6.9 mph - N/A   Clear
6:53 AM 10.9 °F 0.2 °F 3.9 °F 73% 29.68 in 10.0 mi NW 6.9 mph - N/A   Clear
7:53 AM 12.0 °F -2.7 °F 5.0 °F 73% 29.69 in 10.0 mi NW 12.7 mph - N/A   Clear
8:53 AM 12.9 °F -2.2 °F 3.9 °F 67% 29.70 in 10.0 mi NNW 13.8 mph 25.3 mph N/A   Clear
9:53 AM 15.1 °F -1.1 °F 3.0 °F 59% 29.70 in 10.0 mi North 17.3 mph 25.3 mph N/A   Partly Cloudy
10:53 AM 17.1 °F 2.0 °F 3.0 °F 54% 29.69 in 10.0 mi NNW 16.1 mph 24.2 mph N/A   Clear
11:53 AM 17.1 °F 3.6 °F 3.0 °F 54% 29.70 in 10.0 mi NW 12.7 mph 23.0 mph N/A   Scattered Clouds
12:53 PM 19.9 °F 7.9 °F 3.0 °F 48% 29.70 in 10.0 mi NNW 11.5 mph 18.4 mph N/A   Mostly Cloudy
1:53 PM 19.9 °F 6.2 °F -0.0 °F 42% 29.70 in 10.0 mi WNW 15.0 mph 21.9 mph N/A   Clear
2:53 PM 21.0 °F 8.1 °F -2.0 °F 36% 29.70 in 10.0 mi NW 13.8 mph - N/A   Clear
3:53 PM 21.9 °F 10.4 °F -2.9 °F 34% 29.70 in 10.0 mi WNW 11.5 mph - N/A   Clear
4:53 PM 21.0 °F 7.6 °F -4.0 °F 33% 29.71 in 10.0 mi NNW 15.0 mph 21.9 mph N/A   Clear
5:53 PM 19.4 °F 7.2 °F -2.2 °F 39% 29.68 in 10.0 mi NW 11.5 mph - N/A   Clear
6:53 PM 17.1 °F 4.3 °F -0.9 °F 45% 29.75 in 10.0 mi NNW 11.5 mph - N/A   Clear
7:53 PM 16.0 °F 3.6 °F -2.0 °F 45% 29.77 in 10.0 mi NW 10.4 mph - N/A   Clear
8:53 PM 15.1 °F 2.5 °F -0.9 °F 49% 29.78 in 10.0 mi NNW 10.4 mph - N/A   Clear
9:53 PM 14.0 °F 2.0 °F -0.0 °F 54% 29.80 in 10.0 mi NW 9.2 mph - N/A   Clear
10:53 PM 10.9 °F 1.4 °F -0.0 °F 61% 29.81 in 10.0 mi NW 5.8 mph - N/A   Clear
11:53 PM 10.0 °F 0.4 °F -0.0 °F 64% 29.83 in 10.0 mi NW 5.8 mph - N/A   Clear